sat.trackr.live / text

‹ back to catalog

STARLINK-30155

NORAD 57475 · 2023-107U

PAYLOAD ACTIVE UNKNOWN

§ Identity

Operator
Country
US
Launch date
2023-07-28
Launch site
AFETR
Launch vehicle
Mass (kg)
RCS (m²)

Purposes: comms

External: N2YO · Heavens-Above · Gunter

§ Orbital elements

Epoch: 2026-05-24T18:00:44.310240Z

Period
94.27 min
Inclination
43.0015°
Eccentricity
0.0001744
Mean motion
15.27577659 rev/d
Perigee alt
481.9 km
Apogee alt
484.3 km
Semi-major
6,861.2 km
B*
2.1618e-5
RAAN
266.2076°
Arg perigee
262.5940°
Mean anomaly
97.4713°
Rev number
15,678

§ Raw data

STARLINK-301551 57475U 23107U   26144.75051285  .00000333  00000+0  21618-4 0  99912 57475  43.0015 266.2076 0001744 262.5940  97.4713 15.27577659156788

JSON: /api/v1/satellites/57475 · /tle

For live sub-satellite position, see the globe view (requires WebGL).

§ Visibility from observer

Set your observer location to see the next 7 days of passes ≥ 10°. The values pass through the URL so the page stays shareable.

No JS? Fill the form by hand. The geolocation button needs JavaScript.